Location: Newark
(34.1333°N, 7.9667°W)
Time: 14:29:28
(UTC+00:00)

Explorer 11/Cluster Stage 4 - All Passes

Search period start: 22 June 2021 00:00
Search period end: 02 July 2021 00:00
Orbit: 467 x 1257 km, 28.8° (Epoch: 21 June)

Date Brightness Start Highest point End Pass type
(mag) Time Alt. Az. Time Alt. Az. Time Alt. Az.
22 Jun - 00:42:31 10° S 00:46:38 15° SSE 00:50:56 10° ESE visible
22 Jun - 02:27:50 10° SW 02:35:02 37° SSE 02:42:22 10° E visible
22 Jun - 04:15:59 10° WSW 04:24:01 57° S 04:31:37 10° E visible
22 Jun - 06:05:14 10° W 06:13:08 56° S 06:20:04 10° ESE daylight
22 Jun - 07:55:09 10° W 08:01:44 33° SSW 08:07:23 10° SE daylight
22 Jun - 09:48:29 10° SW 09:49:30 10° SW 09:50:30 10° SSW daylight
23 Jun - 00:30:40 10° S 00:35:17 17° SSE 00:40:10 10° ESE visible
23 Jun - 02:16:27 10° SW 02:23:41 40° SSE 02:31:12 10° E visible
23 Jun - 04:04:40 10° WSW 04:12:44 58° S 04:20:28 10° E visible
23 Jun - 05:53:54 10° W 06:01:51 54° S 06:08:57 10° ESE daylight
23 Jun - 07:43:53 10° W 07:50:27 31° SSW 07:56:11 10° SE daylight
24 Jun - 00:18:59 10° S 00:23:55 19° SSE 00:29:14 10° ESE visible
24 Jun - 02:05:07 10° SW 02:12:21 43° SSE 02:20:00 10° E visible
24 Jun - 03:53:24 10° WSW 04:01:25 60° S 04:09:17 10° E visible
24 Jun - 05:42:36 10° W 05:50:33 52° SSW 05:57:47 10° ESE daylight
24 Jun - 07:32:40 10° W 07:39:09 28° SSW 07:44:54 10° SSE daylight
25 Jun - 00:07:26 10° SSW 00:12:35 21° SSE 00:18:13 10° ESE visible
25 Jun - 01:53:50 10° SW 02:01:01 45° SSE 02:08:46 10° E visible
25 Jun - 03:42:09 10° WSW 03:50:05 60° S 03:58:04 10° E visible
25 Jun - 05:31:20 10° W 05:39:14 50° SSW 05:46:35 10° ESE daylight
25 Jun - 07:21:29 10° W 07:27:50 26° SSW 07:33:33 10° SSE daylight
25 Jun - 23:55:59 10° SSW 00:01:14 23° SSE 00:07:07 10° ESE visible
26 Jun - 01:42:37 10° WSW 01:49:41 48° SSE 01:57:30 10° E visible
26 Jun - 03:30:56 10° WSW 03:38:46 60° S 03:46:49 10° ESE visible
26 Jun - 05:20:05 10° W 05:27:55 48° SSW 05:35:21 10° SE daylight
26 Jun - 07:10:21 10° WSW 07:16:29 24° SSW 07:22:07 10° SSE daylight
26 Jun - 23:44:38 10° SSW 23:49:56 26° SSE 23:55:57 10° E visible
27 Jun - 01:31:27 10° WSW 01:38:22 50° SSE 01:46:12 10° E visible
27 Jun - 03:19:45 10° W 03:27:28 60° S 03:35:32 10° ESE visible
27 Jun - 05:08:51 10° W 05:16:34 45° SSW 05:24:03 10° SE daylight
27 Jun - 06:59:17 10° WSW 07:05:07 22° SSW 07:10:35 10° SSE daylight
27 Jun - 23:33:21 10° SSW 23:38:38 28° SSE 23:44:44 10° E visible
28 Jun - 01:20:18 10° WSW 01:27:05 52° S 01:34:53 10° E visible
28 Jun - 03:08:37 10° W 03:16:09 59° S 03:24:15 10° ESE visible
28 Jun - 04:57:41 10° W 05:05:13 42° SSW 05:12:42 10° SE daylight
28 Jun - 06:48:19 10° WSW 06:53:45 19° SSW 06:58:56 10° SSE daylight
28 Jun - 23:22:09 10° SW 23:27:21 30° SSE 23:33:30 10° E night (unlit)
29 Jun - 01:09:12 10° WSW 01:15:49 54° S 01:23:32 10° E visible
29 Jun - 02:57:30 10° W 03:04:51 57° S 03:12:54 10° ESE visible
29 Jun - 04:46:33 10° W 04:53:52 39° SSW 05:01:17 10° SE visible
29 Jun - 06:37:28 10° WSW 06:42:23 17° SSW 06:47:08 10° S daylight
29 Jun - 23:10:59 10° SW 23:16:07 32° SSE 23:22:14 10° E night (unlit)
30 Jun - 00:58:10 10° WSW 01:04:33 55° S 01:12:11 10° E visible
30 Jun - 02:46:24 10° W 02:53:33 55° S 03:01:32 10° ESE visible
30 Jun - 04:35:27 10° W 04:42:31 36° SSW 04:49:48 10° SE visible
30 Jun - 06:26:48 10° WSW 06:31:01 15° SSW 06:35:09 10° S daylight
30 Jun - 21:16:19 10° SSE 21:17:16 10° SE 21:18:15 10° SE visible
30 Jun - 22:59:53 10° SW 23:04:53 33° SSE 23:10:57 10° E night (unlit)
01 Jul - 00:47:08 10° WSW 00:53:20 55° S 01:00:49 10° E visible
01 Jul - 02:35:21 10° W 02:42:16 53° S 02:50:07 10° ESE visible
01 Jul - 04:24:24 10° W 04:31:10 32° SSW 04:38:15 10° SE visible
01 Jul - 06:16:26 10° WSW 06:19:39 13° SSW 06:22:51 10° S daylight
01 Jul - 21:04:19 10° SSE 21:06:04 12° SSE 21:07:55 10° SE visible
01 Jul - 22:48:50 10° SW 22:53:42 35° SSE 22:59:39 10° E night (unlit)
